Location: Marquette
(46.5440°N, 87.3950°W)
Time: 22:42:21
(UTC-05:00)

Daily predictions for brighter satellites

Satellite Brightness Start Highest point End
(mag) Time Altitude Azimuth Time Altitude Azimuth Time Altitude Azimuth
Cosmos 1766 Rocket 4.0 18:04:19 10° SSW 18:08:45 69° W 18:13:11 10° N
CZ-4C R/B 4.2 18:07:44 10° NW 18:11:50 18° N 18:16:16 10° NE
OTV 4 3.5 18:12:41 10° SSW 18:13:33 11° SSW 18:14:26 10° S
Cosmos 1125 Rocket 3.5 18:08:55 10° NNW 18:14:08 68° ENE 18:19:18 10° SSE
Meteor 2-10 4.5 18:10:43 10° N 18:15:26 37° ENE 18:20:14 10° SE
SL-16 R/B 4.3 18:11:55 10° W 18:16:04 20° NW 18:20:15 10° N
CENTAUR R/B 2.8 18:11:26 10° SW 18:17:37 76° NW 18:24:42 10° NE
COSMO-SKYMED 1 3.5 18:14:46 10° NE 18:18:32 28° E 18:22:16 10° SSE
USA 116 3.1 18:15:47 10° NNE 18:18:59 68° ESE 18:22:03 10° S
Molniya-1 4.2 18:16:24 10° SW 18:19:19 89° NW 18:24:39 10° NE
CZ-2C R/B 2.7 18:14:32 10° S 18:19:29 76° WSW 18:24:19 10° NNW
YAOGAN 1 2.6 18:16:36 10° SSE 18:20:56 87° ENE 18:25:17 10° NNW
Thor Agena Rocket 3.6 18:18:06 10° NNE 18:23:21 64° ESE 18:28:29 10° S
Cosmos 841 Rocket 3.6 18:19:16 10° SSW 18:24:32 83° WNW 18:29:51 10° NNE
Cosmos 2333 4.4 18:21:14 10° SSW 18:26:50 73° WNW 18:32:27 10° NNE
Lacrosse 5 rocket 1.1 18:23:39 10° NW 18:27:25 89° NE 18:31:21 10° SE
Cosmos 2360 Rocket 3.7 18:22:41 10° WSW 18:27:44 33° NW 18:32:49 10° NNE
SPOT 3 Rocket 3.7 18:23:08 10° SSE 18:28:17 80° WSW 18:33:30 10° NNW
MSX 3.9 18:23:03 10° SSE 18:28:47 89° ENE 18:34:33 10° NNW
Resurs 01 Rocket 3.3 18:27:25 10° E 18:29:42 14° ENE 18:31:58 10° NNE
Cosmos 1980 3.8 18:26:29 10° S 18:32:01 58° ESE 18:37:36 10° NNE
COSMOS 2441 4.3 18:27:50 10° SSE 18:32:42 84° ENE 18:37:34 10° NNW
Cosmos 332 Rocket 4.0 18:29:39 10° SSW 18:34:29 76° WNW 18:39:23 10° NNE
CORIOLIS 4.5 18:30:35 10° S 18:35:55 72° WSW 18:41:19 10° NNW
Cosmos 2228 Rocket 4.1 18:31:53 10° NNW 18:36:10 50° W 18:40:28 10° SSW
Cosmos 2151 3.0 18:33:38 10° S 18:37:44 55° E 18:41:52 10° NNE
Cosmos 2279 Rocket 4.0 18:32:25 10° N 18:38:34 58° ENE 18:44:40 10° SSE
ATLAS 5 CENTAUR R/B 4.0 18:35:27 10° NNW 18:38:39 15° NNE 18:41:50 10° NE
Orbus 7S? 4.4 18:38:49 10° NW 18:42:11 39° NNE 18:48:51 10° ESE
Cosmos 44 3.4 18:38:57 10° SSW 18:44:09 68° ESE 18:48:47 12° NE
Cosmos 1328 3.7 18:40:26 10° S 18:44:22 86° E 18:48:21 10° N
CZ-4 R/B 3.4 18:43:52 10° SSW 18:47:21 32° W 18:50:54 10° NNW
ALOS 3.4 18:45:02 10° ESE 18:48:38 22° ENE 18:52:14 10° NNE
IDEFIX/ARIANE 42P 4.1 18:46:09 10° SSW 18:51:02 41° W 18:55:59 10° NNW
Cosmos 2333 Rocket 2.2 18:45:33 10° SSW 18:51:12 88° WNW 18:56:55 10° NNE
NOAA 12 4.3 18:46:24 10° SE 18:51:25 49° ENE 18:56:30 10° N
Cosmos 2219 Rocket 2.5 18:46:52 10° SW 18:52:29 70° WNW 18:58:07 10° NNE
DNEPR-1 R/B 4.4 18:47:06 10° SW 18:53:53 84° NW 18:59:06 12° NE
Cosmos 1626 3.1 18:52:18 10° SSE 18:55:29 27° E 18:56:51 21° NE
Cosmos 1151 Rocket 3.6 18:52:36 10° NNW 18:56:50 61° W 19:01:03 10° S
Cosmos 1943 Rocket 4.1 18:56:57 10° NNE 18:57:34 10° NNE 18:57:49 10° NE
SJ-6B 3.3 18:56:27 10° SE 19:00:19 41° ENE 19:04:14 10° N
Cosmos 2278 Rocket 2.9 18:55:09 10° NNW 19:00:44 58° WSW 19:06:17 10° S
Aureole 2 Rocket 2.7 18:57:20 10° S 19:01:05 65° ESE 19:04:26 15° NNE
Nadezhda 4 Rocket 4.4 18:55:55 10° SSE 19:01:38 39° E 19:07:26 10° NNE
Cosmos 2180 Rocket 4.4 18:57:06 10° N 19:03:16 73° E 19:09:29 10° SSE
Cosmos 371 Rocket 3.9 18:58:41 10° SW 19:03:24 56° WNW 19:08:09 10° NNE
Cosmos 1703 3.5 19:00:04 10° SSE 19:03:47 44° E 19:06:55 14° NNE
Cosmos 1455 2.7 19:01:04 10° N 19:04:36 36° ENE 19:08:09 10° SE
SKYMED 2 3.5 19:02:25 10° NNE 19:06:48 87° ESE 19:11:09 10° SSW
Cosmos 1726 3.5 19:04:38 10° NNW 19:08:13 42° W 19:11:47 10° SSW
Cosmos 1805 Rocket 3.6 19:05:27 10° S 19:09:49 56° E 19:14:12 10° NNE
Lacrosse 4 Rocket 2.0 19:07:54 10° NNW 19:11:36 32° NE 19:12:10 31° ENE
SL-19 R/B 4.4 19:09:27 10° SE 19:15:03 51° ENE 19:20:27 10° N
FREGAT/IRIS 2.5 19:17:21 10° SSE 19:20:21 61° ENE 19:23:24 10° N
Cosmos 540 Rocket 3.9 19:16:17 10° SW 19:21:24 62° WNW 19:26:33 10° NNE
Cosmos 1092 Rocket 4.4 19:16:08 10° SSE 19:21:58 41° E 19:27:50 10° NNE
Cosmos 2084 4.4 19:19:48 10° WSW 19:23:23 36° NW 19:25:30 20° NNE
Cosmos 44 Rocket 4.4 19:20:31 10° WSW 19:25:22 42° NW 19:29:12 15° NNE
ATLAS 3B R/B 4.3 19:22:04 10° NW 19:27:03 19° N 19:29:53 15° NNE
Sich 1 3.1 19:22:51 10° S 19:27:12 56° E 19:29:42 24° NNE
Abrixas 2.6 19:24:31 10° WSW 19:27:16 59° S 19:27:16 59° S
Cosmos 2237 Rocket 2.6 19:22:12 10° SW 19:27:45 61° WNW 19:33:14 11° NNE
Cosmos 1340 Rocket 3.0 19:24:05 10° SSW 19:28:00 69° WNW 19:31:54 10° N
USA 215 3.3 19:21:41 10° SE 19:28:16 83° SW 19:34:51 10° NW
Cosmos 2369 Rocket 3.3 19:25:06 10° N 19:29:27 25° NE 19:29:27 25° NE
Cosmos 2058 3.8 19:28:33 10° SSW 19:32:33 49° WNW 19:36:33 10° N
Cosmos 1461 2.8 19:28:47 10° SSW 19:32:55 65° ESE 19:33:36 54° ENE
SL-16 R/B 2.1 19:28:59 10° SSW 19:34:36 73° ESE 19:37:58 25° NNE
Cosmos 1633 Rocket 3.0 19:30:20 10° S 19:34:39 59° E 19:36:08 38° NE
Cosmos 1869 3.8 19:37:05 10° N 19:40:06 44° NNE 19:40:06 44° NNE
Cosmos 304 Rocket 3.9 19:37:14 10° SSW 19:42:02 75° WNW 19:45:06 23° NNE
Cosmos 2297 4.4 19:37:50 10° NW 19:43:25 56° WSW 19:48:59 10° S
BREEZE-M DEB (TANK) 3.4 19:42:34 10° SW 19:44:01 34° SW 19:44:01 34° SW
Meteor 1-28 Rocket 4.4 19:44:45 11° N 19:48:11 41° WNW 19:51:42 10° SW
Lacrosse 5 3.2 19:45:18 10° NW 19:49:31 25° N 19:50:06 25° NNE
BREEZE-M DEB (TANK) 3.6 19:50:37 10° WSW 19:51:40 24° W 19:51:40 24° W
Cosmos 1356 Rocket 3.6 19:50:12 10° SSW 19:54:10 67° WNW 19:55:25 41° N
COSMO-SKYMED 1 4.3 19:50:50 10° N 19:54:41 31° WNW 19:58:31 10° SW
CZ-3A R/B 3.2 19:53:12 10° WNW 19:57:53 60° SW 20:01:32 21° SSE
Aureole 1 Rocket 3.8 19:56:40 10° S 20:02:08 72° ESE 20:05:30 32° NNE
CZ-4C R/B 3.8 19:57:18 10° NNW 20:02:47 26° NNE 20:02:59 26° NNE
Spot 2 Rocket 3.4 19:59:38 10° SSE 20:04:42 84° WSW 20:09:46 10° NNW
Resurs 01 Rocket 1.7 20:03:50 37° S 20:05:35 78° WSW 20:10:04 10° NNW
Lacrosse 5 rocket 4.2 20:04:10 10° W 20:06:09 14° SW 20:08:10 10° SSW
Cosmos 1666 Rocket 4.3 20:04:48 10° SSW 20:09:02 50° WNW 20:11:29 23° N
CENTAUR R/B 4.2 20:03:59 10° W 20:09:32 28° NNW 20:13:26 18° NNE
FENGYUN 3A 3.8 20:04:45 10° S 20:10:06 74° WSW 20:15:30 10° NNW
Resurs 1-3 4.3 20:11:46 45° NNW 20:11:46 45° NNW 20:14:53 10° NNW
USA 229 DEB 3.6 20:04:41 10° SSW 20:11:25 63° ESE 20:12:13 59° E
USA 229 3.6 20:04:47 10° SSW 20:11:31 63° ESE 20:12:16 59° E
BREEZE-M DEB (TANK) 4.0 19:55:23 10° W 20:12:47 72° N 20:13:47 60° ENE
Iridium 4 Rocket 3.8 20:16:14 10° SSW 20:19:42 47° SW 20:19:42 47° SW
ATLAS 5 CENTAUR R/B 3.5 20:19:55 10° NNW 20:23:24 28° N 20:23:24 28° N
ALOS 3.2 20:21:17 10° S 20:25:47 47° W 20:30:19 10° NNW
Cosmos 1626 4.5 20:27:52 10° SW 20:30:52 22° WNW 20:31:36 21° NW
Cosmos 2333 Rocket 4.4 20:32:20 10° W 20:36:19 19° NW 20:39:53 11° N
Cosmos 1943 Rocket 4.1 20:37:43 10° NNW 20:39:21 19° N 20:39:21 19° N
Lacrosse 4 Rocket 3.8 20:46:45 10° NW 20:48:34 21° WNW 20:48:34 21° WNW
Cosmos 2369 Rocket 3.8 21:08:40 10° NNW 21:11:17 28° NW 21:11:17 28° NW
SL-16 R/B 4.1 21:14:52 10° W 21:19:19 23° NW 21:19:54 23° NW
ATLAS 3B R/B 4.3 21:13:47 10° NNW 21:17:08 24° N 21:17:08 24° N
CZ-4C R/B 4.4 21:45:37 10° NW 21:48:11 25° NNW 21:48:11 25° NNW
